Погода в Славянске

Украина / Донецкая область     48°51′08″N   37°36′21″E
темп.,
°C
ветер,
м/с
пор.,
м/с
влажн.,
%
обл.,
%
осадки,
мм/ч
давл.,
гПа
погр.,
м
17 мая, пн
пн1700:00+16всв4108294 0.0 1005156
03:00+15в413735 0.0 1005223
06:00+14в412745 0.0 1004260
09:00+21юв711523 0.0 1004681
12:00+24ююв795699 0.1 1004961
15:00+24ююв5759100 0.1 10051006
18:00+24юв586267 0.0 1005690
21:00+19ююв41075100 0.0 1006293
18 мая, вт
вт1800:00+16ю51089100 0.1 1007336
03:00+15ююз51194100 0.1 1006321
06:00+15ююв2495100 0.9 1007205
09:00+18ююз567485 1.3 1007772
12:00+21ююз566279 0.7 10071398
15:00+22ю575386 2.1 10061966
18:00+20ююз58671 1.1 10061058
21:00+15ю498687 1.3 1007202
19 мая, ср
ср1900:00+13ююв399347 0.1 1007197
03:00+13ююв41093100 0.1 1007270
06:00+14юв5119398 0.8 1006539
09:00+14юз5890100 1.4 1007564
12:00+14ю3586100 1.2 1008587
15:00+18ю4670100 3.3 10071080
18:00+17ююз3677100 2.4 1007298
21:00+13ю49885 3.5 1008157
20 мая, чт
чт2000:00+11ююз4109511 0.0 1008300
03:00+10ююз5109895 0.0 1008358
06:00+12юз5894100 0.5 1008566
09:00+13юз5991100 0.8 1009717
12:00+16зюз7107143 0.3 10101256
15:00+19зюз795823 0.4 10111575
18:00+20зюз375784 0.0 10111694
21:00+15ююз3373100 0.0 101137
21 мая, пт
пт2100:00+13ю338733 0.0 101241
03:00+12ююз2388100 0.1 101263
06:00+13юв1282100 0.0 101342
09:00+17вюв4567100 0.0 1012337
12:00+22вюв1254100 0.0 10121066
15:00+23св225299 0.0 10121544
18:00+22св3564100 0.0 1012339
21:00+17ссв478086 0.0 1013123